Погода в Прогрессе

Россия / Свердловская область     57°00′39″N   59°36′09″E
темп.,
°C
ветер,
м/с
пор.,
м/с
влажн.,
%
обл.,
%
осадки,
мм/ч
давл.,
гПа
погр.,
м
27 февраля, сб
сб2723:00−24вюв129561 0.0 102320
02:00−26в129672 0.0 102119
05:00−27в229653 0.0 102027
08:00−26вюв379754 0.0 1017170
11:00−20вюв5119263 0.0 1015353
14:00−17вюв61290100 0.0 1013544
17:00−19вюв61295100 0.3 1012586
20:00−20вюв51295100 0.5 1012670
28 февраля, вс
вс2823:00−19вюв51193100 0.9 1010558
02:00−18в51294100 0.2 1009519
05:00−18в51294100 0.4 1008513
08:00−17всв61292100 0.2 1008543
11:00−16всв51192100 0.4 1008502
14:00−15всв51090100 0.2 1008573
17:00−15всв51092100 0.4 1010544
20:00−18всв41095100 0.3 1011496
1 марта, пн
пн123:00−19всв41095100 0.5 1013430
02:00−20св3897100 0.1 1015354
05:00−21св2798100 0.3 1016302
08:00−22св269889 0.1 1017203
11:00−19св249393 0.1 1018320
14:00−14св2384100 0.0 1018508
17:00−14св1287100 0.1 1018519
20:00−20в119995 0.0 101920
2 марта, вт
вт223:00−21ю119980 0.0 101920
02:00−23юз111002 0.0 101820
05:00−23зюз1210021 0.0 101720
08:00−24юз1210063 0.0 101620
11:00−17юз259252 0.0 1015305
14:00−12юз358778 0.0 1013469
17:00−12ююз368780 0.0 1011511
20:00−18ю249679 0.0 101185
3 марта, ср
ср323:00−17ю289388 0.0 1010221
02:00−15ююз2895100 0.0 1009333
05:00−14ю2796100 0.3 1009323
08:00−14ю2697100 0.3 1008221
11:00−11ююз2591100 0.6 1008482
14:00−8ююз2385100 0.1 1007611
17:00−7ю2488100 0.3 1007585
20:00−10в1197100 0.1 100731